CXA300 LHBP-LKPR

Flight info

Callsign CXA300
Flight time 0h 56m
Altitude 32000
Route BADOV MAVOR KATQA TUMKA VLM
Aircraft A339/H-SDE2E3FGHIJ1RWXY/LB1

Departure

Time 2026-05-04 19:50
Airport Budapest Liszt Ferenc International Airport (LHBP)

Arrival

Time 2026-05-04 20:47
Airport Václav Havel Airport Prague (LKPR)
Time Latitude Longitude Altitude Speed Heading
2026-05-04 19:06 47.43286 19.25695 474 ft 0 kts 42°
2026-05-04 19:19 47.43285 19.25694 474 ft 0 kts 42°
2026-05-04 19:31 47.43283 19.25691 473 ft 2 kts 42°
2026-05-04 19:32 47.43274 19.25679 473 ft 0 kts 42°
2026-05-04 19:32 47.43265 19.25667 473 ft 2 kts 32°
2026-05-04 19:32 47.43251 19.25658 473 ft 2 kts 15°
2026-05-04 19:32 47.43236 19.25654 473 ft 2 kts
2026-05-04 19:33 47.43221 19.25656 472 ft 2 kts 346°
2026-05-04 19:33 47.43207 19.25663 472 ft 2 kts 332°
2026-05-04 19:33 47.43195 19.25675 472 ft 2 kts 318°
2026-05-04 19:33 47.43189 19.25683 472 ft 1 kts 310°
2026-05-04 19:34 47.43187 19.25685 472 ft 0 kts 311°
2026-05-04 19:39 47.43188 19.25685 472 ft 0 kts 311°
2026-05-04 19:39 47.43195 19.25672 472 ft 2 kts 311°
2026-05-04 19:39 47.43213 19.25643 472 ft 4 kts 311°
2026-05-04 19:40 47.43240 19.25597 472 ft 7 kts 311°
2026-05-04 19:40 47.43277 19.25535 472 ft 8 kts 311°
2026-05-04 19:40 47.43318 19.25465 473 ft 8 kts 311°
2026-05-04 19:40 47.43360 19.25394 473 ft 10 kts 311°
2026-05-04 19:41 47.43414 19.25325 472 ft 9 kts 346°
2026-05-04 19:41 47.43473 19.25350 474 ft 7 kts 33°
2026-05-04 19:41 47.43513 19.25396 475 ft 7 kts 38°
2026-05-04 19:41 47.43549 19.25442 477 ft 6 kts 40°
2026-05-04 19:42 47.43584 19.25486 478 ft 6 kts 40°
2026-05-04 19:42 47.43617 19.25528 479 ft 6 kts 41°
2026-05-04 19:42 47.43650 19.25571 480 ft 6 kts 41°
2026-05-04 19:42 47.43678 19.25607 481 ft 4 kts 41°
2026-05-04 19:43 47.43699 19.25637 482 ft 4 kts 45°
2026-05-04 19:43 47.43734 19.25688 484 ft 9 kts 45°
2026-05-04 19:43 47.43787 19.25768 486 ft 13 kts 45°
2026-05-04 19:43 47.43864 19.25875 487 ft 17 kts 43°
2026-05-04 19:44 47.43950 19.25995 489 ft 13 kts 40°
2026-05-04 19:44 47.44029 19.26008 490 ft 11 kts 320°
2026-05-04 19:44 47.44090 19.25926 492 ft 13 kts 314°
2026-05-04 19:44 47.44154 19.25828 493 ft 13 kts 312°
2026-05-04 19:45 47.44218 19.25722 494 ft 14 kts 311°
2026-05-04 19:45 47.44275 19.25628 496 ft 10 kts 311°
2026-05-04 19:45 47.44337 19.25565 498 ft 12 kts 335°
2026-05-04 19:45 47.44411 19.25565 499 ft 8 kts 18°
2026-05-04 19:46 47.44426 19.25573 500 ft 0 kts 23°
2026-05-04 19:47 47.44451 19.25594 501 ft 9 kts 35°
2026-05-04 19:47 47.44503 19.25694 502 ft 16 kts 64°
2026-05-04 19:48 47.44511 19.25806 500 ft 6 kts 141°
2026-05-04 19:48 47.44495 19.25822 500 ft 0 kts 132°
2026-05-04 19:48 47.44494 19.25823 500 ft 0 kts 132°
2026-05-04 19:49 47.44490 19.25830 499 ft 2 kts 132°
2026-05-04 19:49 47.44343 19.26065 495 ft 70 kts 133°
2026-05-04 19:50 47.43843 19.26868 480 ft 140 kts 134°
2026-05-04 19:50 47.43082 19.28125 638 ft 181 kts 131°
2026-05-04 19:50 47.42234 19.29533 1262 ft 186 kts 132°
2026-05-04 19:50 47.41501 19.30996 2111 ft 174 kts 125°
2026-05-04 19:51 47.40935 19.32563 2678 ft 179 kts 118°
2026-05-04 19:51 47.40369 19.34300 3030 ft 196 kts 122°
2026-05-04 19:51 47.39691 19.36110 3376 ft 213 kts 122°
2026-05-04 19:51 47.38938 19.38089 3742 ft 231 kts 122°
2026-05-04 19:52 47.38355 19.40402 4099 ft 254 kts 96°
2026-05-04 19:52 47.38689 19.43004 4680 ft 268 kts 64°
2026-05-04 19:52 47.39868 19.45119 5250 ft 278 kts 44°
2026-05-04 19:52 47.41309 19.47081 5937 ft 284 kts 44°
2026-05-04 19:53 47.42746 19.49063 6679 ft 286 kts 44°
2026-05-04 19:53 47.44186 19.51071 7405 ft 288 kts 44°
2026-05-04 19:53 47.45629 19.53102 8107 ft 290 kts 44°
2026-05-04 19:53 47.47082 19.55157 8808 ft 293 kts 44°
2026-05-04 19:54 47.48564 19.57260 9510 ft 296 kts 44°
2026-05-04 19:54 47.50039 19.59359 10194 ft 298 kts 44°
2026-05-04 19:54 47.51551 19.61512 10664 ft 309 kts 44°
2026-05-04 19:54 47.53138 19.63775 10971 ft 326 kts 44°
2026-05-04 19:55 47.54822 19.66135 11396 ft 338 kts 41°
2026-05-04 19:55 47.56879 19.67804 12036 ft 344 kts 16°
2026-05-04 19:55 47.59215 19.68120 12757 ft 345 kts 353°
2026-05-04 19:55 47.61494 19.67082 13453 ft 347 kts 330°
2026-05-04 19:56 47.63364 19.64819 14117 ft 348 kts 312°
2026-05-04 19:56 47.64978 19.62152 14794 ft 351 kts 311°
2026-05-04 19:56 47.66611 19.59463 15514 ft 353 kts 312°
2026-05-04 19:56 47.68259 19.56773 16200 ft 355 kts 312°
2026-05-04 19:57 47.69906 19.54100 16887 ft 357 kts 313°
2026-05-04 19:57 47.71584 19.51383 17571 ft 359 kts 313°
2026-05-04 19:57 47.73268 19.48660 18301 ft 360 kts 313°
2026-05-04 19:57 47.74963 19.45922 19003 ft 361 kts 313°
2026-05-04 19:58 47.76663 19.43173 19622 ft 364 kts 313°
2026-05-04 19:58 47.78376 19.40401 20212 ft 367 kts 313°
2026-05-04 19:58 47.80101 19.37609 20783 ft 370 kts 313°
2026-05-04 19:58 47.81848 19.34781 21344 ft 373 kts 312°
2026-05-04 19:59 47.83590 19.31958 21895 ft 376 kts 312°
2026-05-04 19:59 47.85367 19.29072 22417 ft 380 kts 312°
2026-05-04 19:59 47.87152 19.26165 22929 ft 383 kts 312°
2026-05-04 19:59 47.88951 19.23233 23446 ft 385 kts 312°
2026-05-04 20:00 47.90756 19.20287 23888 ft 388 kts 312°
2026-05-04 20:00 47.92576 19.17315 24030 ft 389 kts 312°
2026-05-04 20:00 47.94366 19.14385 24030 ft 387 kts 311°
2026-05-04 20:00 47.95987 19.11199 24030 ft 387 kts 302°
2026-05-04 20:01 47.97224 19.07642 24031 ft 388 kts 292°
2026-05-04 20:01 47.98076 19.03842 24032 ft 388 kts 286°
2026-05-04 20:01 47.98793 18.99949 24031 ft 389 kts 285°
2026-05-04 20:01 47.99495 18.96032 24130 ft 394 kts 286°
2026-05-04 20:02 48.00550 18.92287 24545 ft 396 kts 305°
2026-05-04 20:02 48.02305 18.89183 25141 ft 394 kts 314°
2026-05-04 20:02 48.04210 18.86229 25646 ft 396 kts 314°
2026-05-04 20:02 48.06127 18.83252 26106 ft 398 kts 314°
2026-05-04 20:03 48.08017 18.80249 26555 ft 400 kts 313°
2026-05-04 20:03 48.09905 18.77193 26996 ft 402 kts 313°
2026-05-04 20:03 48.11791 18.74098 27425 ft 404 kts 313°
2026-05-04 20:03 48.13681 18.70970 27853 ft 406 kts 313°
2026-05-04 20:04 48.15547 18.67862 28260 ft 408 kts 313°
2026-05-04 20:04 48.17440 18.64699 28655 ft 410 kts 312°
2026-05-04 20:04 48.19344 18.61508 29031 ft 413 kts 313°
2026-05-04 20:04 48.21260 18.58290 29398 ft 415 kts 312°
2026-05-04 20:05 48.23176 18.55066 29757 ft 418 kts 312°
2026-05-04 20:05 48.25099 18.51826 30114 ft 420 kts 312°
2026-05-04 20:05 48.27042 18.48548 30469 ft 422 kts 312°
2026-05-04 20:05 48.28990 18.45255 30838 ft 423 kts 312°
2026-05-04 20:06 48.30947 18.41943 31258 ft 423 kts 312°
2026-05-04 20:06 48.32874 18.38677 31660 ft 424 kts 312°
2026-05-04 20:06 48.34835 18.35350 31979 ft 425 kts 313°
2026-05-04 20:07 48.38754 18.28688 32021 ft 432 kts 312°
2026-05-04 20:07 48.42799 18.21796 32015 ft 450 kts 311°
2026-05-04 20:08 48.46979 18.14654 32011 ft 456 kts 311°
2026-05-04 20:08 48.51148 18.07509 32006 ft 457 kts 311°
2026-05-04 20:09 48.55318 18.00343 32002 ft 456 kts 311°
2026-05-04 20:09 48.59528 17.93089 32004 ft 461 kts 311°
2026-05-04 20:10 48.63737 17.85816 32003 ft 462 kts 311°
2026-05-04 20:10 48.67947 17.78519 32000 ft 462 kts 311°
2026-05-04 20:11 48.72160 17.71195 31997 ft 463 kts 311°
2026-05-04 20:11 48.76362 17.63864 31995 ft 463 kts 311°
2026-05-04 20:12 48.80576 17.56497 31989 ft 463 kts 311°
2026-05-04 20:12 48.85039 17.49463 31984 ft 463 kts 316°
2026-05-04 20:13 48.89639 17.42662 31979 ft 463 kts 316°
2026-05-04 20:13 48.94220 17.35860 31973 ft 464 kts 315°
2026-05-04 20:14 48.98579 17.28638 31972 ft 464 kts 309°
2026-05-04 20:14 49.02384 17.20772 31970 ft 464 kts 303°
2026-05-04 20:15 49.05620 17.12289 31966 ft 464 kts 297°
2026-05-04 20:15 49.08392 17.03411 31964 ft 464 kts 295°
2026-05-04 20:16 49.11090 16.94519 31962 ft 465 kts 295°
2026-05-04 20:16 49.13784 16.85625 31965 ft 464 kts 295°
2026-05-04 20:17 49.16481 16.76705 31832 ft 460 kts 295°
2026-05-04 20:17 49.17811 16.72292 31264 ft 459 kts 295°
2026-05-04 20:17 49.19145 16.67858 30362 ft 464 kts 295°
2026-05-04 20:17 49.20497 16.63358 29394 ft 469 kts 295°
2026-05-04 20:18 49.21837 16.58894 28524 ft 472 kts 295°
2026-05-04 20:18 49.23199 16.54347 27701 ft 473 kts 295°
2026-05-04 20:18 49.24565 16.49784 26884 ft 473 kts 294°
2026-05-04 20:18 49.25926 16.45225 26304 ft 467 kts 294°
2026-05-04 20:19 49.27252 16.40768 25697 ft 452 kts 294°
2026-05-04 20:19 49.28512 16.36527 25585 ft 438 kts 294°
2026-05-04 20:19 49.29755 16.32333 25388 ft 428 kts 294°
2026-05-04 20:19 49.30963 16.28248 25201 ft 418 kts 294°
2026-05-04 20:20 49.32153 16.24221 25018 ft 407 kts 294°
2026-05-04 20:20 49.33294 16.20356 24823 ft 397 kts 294°
2026-05-04 20:20 49.34414 16.16556 24576 ft 387 kts 293°
2026-05-04 20:20 49.35507 16.12838 24172 ft 381 kts 293°
2026-05-04 20:21 49.36588 16.09156 23653 ft 378 kts 293°
2026-05-04 20:21 49.37648 16.05534 23125 ft 376 kts 293°
2026-05-04 20:21 49.39779 15.98252 22117 ft 372 kts 293°
2026-05-04 20:22 49.40855 15.94662 21619 ft 370 kts 295°
2026-05-04 20:22 49.42013 15.91205 21170 ft 368 kts 296°
2026-05-04 20:22 49.43201 15.87733 20775 ft 366 kts 296°
2026-05-04 20:22 49.44377 15.84303 20387 ft 365 kts 296°
2026-05-04 20:23 49.45549 15.80871 19995 ft 363 kts 296°
2026-05-04 20:23 49.46711 15.77461 19600 ft 362 kts 296°
2026-05-04 20:23 49.47868 15.74060 19216 ft 360 kts 296°
2026-05-04 20:23 49.49025 15.70652 18836 ft 358 kts 296°
2026-05-04 20:24 49.50174 15.67262 18441 ft 357 kts 296°
2026-05-04 20:24 49.51313 15.63901 18052 ft 355 kts 296°
2026-05-04 20:24 49.52448 15.60545 17659 ft 354 kts 296°
2026-05-04 20:24 49.53577 15.57200 17281 ft 353 kts 296°
2026-05-04 20:25 49.54691 15.53898 16924 ft 351 kts 296°
2026-05-04 20:25 49.55808 15.50576 16567 ft 349 kts 296°
2026-05-04 20:25 49.56907 15.47306 16213 ft 347 kts 296°
2026-05-04 20:25 49.58013 15.44013 15867 ft 344 kts 295°
2026-05-04 20:26 49.59100 15.40772 15524 ft 342 kts 295°
2026-05-04 20:26 49.60187 15.37528 15167 ft 340 kts 295°
2026-05-04 20:26 49.61266 15.34304 14825 ft 338 kts 294°
2026-05-04 20:26 49.62344 15.31076 14479 ft 336 kts 295°
2026-05-04 20:27 49.63397 15.27917 14131 ft 334 kts 294°
2026-05-04 20:27 49.64462 15.24718 13784 ft 333 kts 294°
2026-05-04 20:27 49.65505 15.21579 13500 ft 329 kts 295°
2026-05-04 20:27 49.66537 15.18471 13353 ft 321 kts 294°
2026-05-04 20:28 49.67543 15.15442 13208 ft 313 kts 294°
2026-05-04 20:28 49.68510 15.12525 13069 ft 306 kts 294°
2026-05-04 20:28 49.69467 15.09641 12944 ft 298 kts 296°
2026-05-04 20:28 49.70596 15.06943 12691 ft 299 kts 306°
2026-05-04 20:29 49.72005 15.04598 12443 ft 299 kts 315°
2026-05-04 20:29 49.73554 15.02499 12201 ft 299 kts 317°
2026-05-04 20:29 49.75141 15.00420 11950 ft 298 kts 317°
2026-05-04 20:29 49.76702 14.98377 11705 ft 297 kts 317°
2026-05-04 20:30 49.78272 14.96309 11456 ft 296 kts 317°
2026-05-04 20:30 49.79833 14.94241 11210 ft 295 kts 317°
2026-05-04 20:30 49.81393 14.92170 10957 ft 293 kts 317°
2026-05-04 20:30 49.82938 14.90117 10734 ft 290 kts 317°
2026-05-04 20:31 49.84443 14.88113 10585 ft 284 kts 317°
2026-05-04 20:31 49.85916 14.86154 10413 ft 280 kts 317°
2026-05-04 20:31 49.87379 14.84206 10235 ft 277 kts 317°
2026-05-04 20:31 49.88842 14.82253 10067 ft 278 kts 317°
2026-05-04 20:32 49.90304 14.80296 9895 ft 277 kts 317°
2026-05-04 20:32 49.91766 14.78336 9722 ft 277 kts 317°
2026-05-04 20:32 49.93222 14.76385 9550 ft 277 kts 317°
2026-05-04 20:32 49.94667 14.74445 9360 ft 276 kts 317°
2026-05-04 20:33 49.96114 14.72507 9167 ft 275 kts 317°
2026-05-04 20:33 49.97555 14.70573 9003 ft 274 kts 317°
2026-05-04 20:33 49.99007 14.68623 8817 ft 274 kts 317°
2026-05-04 20:33 50.00409 14.66683 8643 ft 271 kts 315°
2026-05-04 20:34 50.01712 14.64593 8468 ft 267 kts 310°
2026-05-04 20:34 50.02868 14.62399 8294 ft 262 kts 306°
2026-05-04 20:34 50.03972 14.60146 8121 ft 259 kts 306°
2026-05-04 20:34 50.05047 14.57931 7952 ft 258 kts 306°
2026-05-04 20:35 50.06123 14.55712 7783 ft 259 kts 306°
2026-05-04 20:35 50.07205 14.53484 7609 ft 258 kts 306°
2026-05-04 20:35 50.08292 14.51247 7436 ft 257 kts 306°
2026-05-04 20:35 50.09364 14.49043 7266 ft 257 kts 306°
2026-05-04 20:36 50.10453 14.46804 7093 ft 257 kts 306°
2026-05-04 20:36 50.11520 14.44609 6946 ft 257 kts 306°
2026-05-04 20:36 50.12604 14.42377 6824 ft 257 kts 306°
2026-05-04 20:36 50.13672 14.40178 6701 ft 256 kts 306°
2026-05-04 20:37 50.14748 14.37956 6530 ft 254 kts 306°
2026-05-04 20:37 50.15801 14.35784 6359 ft 251 kts 306°
2026-05-04 20:37 50.16839 14.33636 6185 ft 248 kts 306°
2026-05-04 20:37 50.17877 14.31488 6011 ft 246 kts 306°
2026-05-04 20:38 50.18890 14.29388 5841 ft 243 kts 306°
2026-05-04 20:38 50.19906 14.27280 5671 ft 242 kts 306°
2026-05-04 20:38 50.20927 14.25163 5499 ft 243 kts 306°
2026-05-04 20:38 50.21944 14.23053 5327 ft 243 kts 306°
2026-05-04 20:39 50.22949 14.20958 5135 ft 243 kts 306°
2026-05-04 20:39 50.23956 14.18839 4938 ft 241 kts 306°
2026-05-04 20:39 50.24942 14.16751 4745 ft 240 kts 306°
2026-05-04 20:39 50.25919 14.14670 4553 ft 238 kts 306°
2026-05-04 20:40 50.26889 14.12595 4342 ft 235 kts 306°
2026-05-04 20:40 50.27847 14.10537 4156 ft 230 kts 306°
2026-05-04 20:40 50.28765 14.08555 3997 ft 223 kts 306°
2026-05-04 20:40 50.29600 14.06518 3993 ft 223 kts 290°
2026-05-04 20:41 50.29742 14.04169 3968 ft 217 kts 256°
2026-05-04 20:41 50.29038 14.02208 3965 ft 201 kts 219°
2026-05-04 20:41 50.27782 14.01363 3979 ft 199 kts 181°
2026-05-04 20:41 50.26447 14.01743 3993 ft 196 kts 159°
2026-05-04 20:42 50.25190 14.02513 3982 ft 190 kts 156°
2026-05-04 20:42 50.23995 14.03315 3977 ft 189 kts 155°
2026-05-04 20:42 50.22784 14.04141 3986 ft 189 kts 155°
2026-05-04 20:42 50.21579 14.04970 3983 ft 189 kts 155°
2026-05-04 20:43 50.20398 14.05840 3978 ft 189 kts 148°
2026-05-04 20:43 50.19366 14.07071 3852 ft 184 kts 135°
2026-05-04 20:43 50.18516 14.08535 3622 ft 183 kts 127°
2026-05-04 20:43 50.17748 14.10127 3385 ft 183 kts 124°
2026-05-04 20:44 50.17010 14.11707 3139 ft 178 kts 124°
2026-05-04 20:44 50.16293 14.13214 2915 ft 171 kts 125°
2026-05-04 20:44 50.15594 14.14657 2687 ft 164 kts 125°
2026-05-04 20:44 50.14919 14.16043 2479 ft 157 kts 125°
2026-05-04 20:45 50.14274 14.17371 2281 ft 149 kts 126°
2026-05-04 20:45 50.13660 14.18637 2100 ft 148 kts 126°
2026-05-04 20:45 50.13034 14.19931 1941 ft 148 kts 125°
2026-05-04 20:45 50.12413 14.21203 1693 ft 150 kts 127°
2026-05-04 20:46 50.11785 14.22461 1498 ft 147 kts 124°
2026-05-04 20:46 50.11175 14.23755 1312 ft 148 kts 125°
2026-05-04 20:46 50.10561 14.25021 1183 ft 145 kts 125°
2026-05-04 20:46 50.10058 14.26096 1204 ft 93 kts 126°
2026-05-04 20:47 50.09733 14.26768 1220 ft 62 kts 127°
2026-05-04 20:47 50.09512 14.27221 1224 ft 39 kts 128°
2026-05-04 20:47 50.09434 14.27455 1225 ft 16 kts 66°
2026-05-04 20:47 50.09492 14.27501 1222 ft 4 kts 20°
2026-05-04 20:48 50.09533 14.27542 1219 ft 10 kts 33°
2026-05-04 20:48 50.09613 14.27625 1213 ft 14 kts 27°
2026-05-04 20:48 50.09668 14.27599 1211 ft 8 kts 306°
2026-05-04 20:48 50.09714 14.27521 1210 ft 11 kts 314°
2026-05-04 20:49 50.09778 14.27423 1210 ft 14 kts 315°
2026-05-04 20:49 50.09858 14.27302 1209 ft 17 kts 313°
2026-05-04 20:49 50.09932 14.27151 1209 ft 18 kts 306°
2026-05-04 20:49 50.10011 14.26981 1209 ft 20 kts 306°
2026-05-04 20:50 50.10098 14.26801 1207 ft 21 kts 307°
2026-05-04 20:50 50.10189 14.26618 1205 ft 21 kts 308°
2026-05-04 20:50 50.10283 14.26428 1200 ft 23 kts 307°
2026-05-04 20:50 50.10378 14.26235 1193 ft 22 kts 307°
2026-05-04 20:51 50.10466 14.26053 1188 ft 19 kts 306°
2026-05-04 20:51 50.10535 14.25904 1184 ft 17 kts 301°
2026-05-04 20:51 50.10582 14.25804 1182 ft 7 kts 331°
2026-05-04 20:51 50.10633 14.25820 1181 ft 8 kts 35°
2026-05-04 20:52 50.10686 14.25878 1180 ft 10 kts 36°
2026-05-04 20:52 50.10739 14.25939 1178 ft 6 kts 43°
2026-05-04 20:52 50.10737 14.25995 1178 ft 5 kts 126°
2026-05-04 20:52 50.10724 14.26021 1178 ft 0 kts 126°
2026-05-04 20:53 50.10723 14.26023 1178 ft 0 kts 126°
2026-05-04 20:53 50.10722 14.26024 1178 ft 0 kts 126°